Location: Newark
(39.6867°N, 100.6772°W)
Time: 12:59:02
(UTC+00:00)

Vanguard 1 Rocket - Pass Details

Date: 26 October 2019
Orbit: 651 x 4226 km, 34.3° (Epoch: 20 November)

Event Time Altitude Azimuth Distance (km) Brightness Sun altitude
Rises 15:14:43 0° 231° (SW) 4,263 10.7 21.4°
Reaches altitude 10° 15:17:05 10° 226° (SW) 3,597 10.4 21.7°
Maximum altitude 15:26:30 53° 152° (SSE) 2,618 10.8 23.1°
Drops below altitude 10° 15:44:37 10° 83° (E) 6,592 12.4 25.7°
Sets 15:50:53 0° 80° (E) 8,024 12.7 26.5°
